Location: Hermaringen
(48.5952°N, 10.2585°E)
Time: 10:31:46
(UTC+00:00)

A-11 Canister half - Pass Details

Date: 17 February 2026
Orbit: 1513 x 1687 km, 47.2° (Epoch: 11 March)

Event Time Altitude Azimuth Distance (km) Brightness Sun altitude
Rises 18:46:56 0° 196° (SSW) 4,927 11.8 -21.0°
Reaches altitude 10° 18:50:45 10° 185° (S) 3,942 11.1 -21.6°
Maximum altitude 18:58:40 27° 133° (SE) 2,814 9.9 -22.9°
Enters shadow 18:58:47 27° 132° (SE) 2,814 9.9 -23.0°
